METEOR 2-6 DEB

Satellite information

Favourite Embed

Satellite Type and Status

DEBRISIN ORBIT

Key statistics

Satellite METEOR 2-6 DEB at a glance.

Uptime

16478

Days in orbit

Revolutions

≈ 14.3

Per day

Orbit

LEO

Low Earth Orbit

Inclination

81.2

Latest

Satellite identification and parameters

Extended collection of information and parameters for METEOR 2-6 DEB.

Object identification

Identified? True

Debris? True

Object name: METEOR 2-6 DEB

International designator: 1980-073V

Object number (NORAD): 45501

Object ID (CCSDS): 45501

Country: COMMONWEALTH OF INDEPENDENT STATES (CIS)

Current information (Y/N): Y

RCS size: SMALL

Orbital parameters

Period: 100.452 minutes

Inclination: 81.2108 deg

SMA: 7158.142 km

Apoapsis: 800.969 km

Periapsis: 759.046 km

RAAN: 278.4515 deg

Eccentricy: 0.00292836

Argument of periapsis: 292.556 deg

Mean anomaly: 67.2525 deg

Mean motion: 14.33515139 rev/day

Mean motion (dot): 0.00008185 rev/day2

B* drag term: 0.0029410072 1/REarth

Two-line elements (TLE)

Creation date: Oct. 20, 2025, 2:10 a.m.

Reference frame: TEME

Reference center: EARTH

Epoch: Oct. 19, 2025, 5:07 p.m. UTC

TLE line 0: 0 METEOR 2-6 DEB

TLE line 1: 1 45501U 80073V 25292.71371036 .00008185 00000-0 29410-2 0 9991

TLE line 2: 2 45501 81.2108 278.4515 0029284 292.5560 67.2525 14.33515139535806

Live tracking on map

Real-time ground track for satellite METEOR 2-6 DEB.

In-orbit conjunctions

A list of the most updated potential collisions computed for object METEOR 2-6 DEB.

Target Orbit TCA Probability of collision Miss distance Type
COSMOS 1814 LEO 2025-05-12 13:59:52 0.000110492 402.0 (m) PAYLOAD
CZ-6A DEB SSO 2024-12-18 14:15:07 0.0001639959 100.0 (m) DEBRIS

Associated space launch

Second generation soviet meteorological satellite

METEOR 2-6 DEB was lifted into orbit during the mission ‘Vostok 8A92M | Meteor-2 6’, on board a Vostok 8A92M space rocket.

The launch took place on Sept. 9, 1980, 11 a.m. from 43/3 (43L).

For more information about the launch, click the button.

Launch to space Vostok 8A92M | Meteor-2 6
Vostok 8A92M | Meteor-2 6

Agency: N/A

Status: Launch Successful

Launch date: Sept. 9, 1980, 11 a.m. UTC

Rocket: Vostok 8A92M

Launch pad: 43/3 (43L)

Location: Plesetsk Cosmodrome, Russian Federation

...

Latest news about this satellite

There are no fresh news available about this satellite. Check back as we update our databases every day.


Newsletter sign-up

Weekly statistics, charts and insights to help you stay on top of the space industry.